Location: *
(51.1248°S, 108.4023°W)
Time: 01:33:20
(UTC+00:00)

Cosmos 1544 - Pass Details

Date: 24 October 2021
Orbit: 467 x 486 km, 82.5° (Epoch: 03 December)

Event Time Altitude Azimuth Distance (km) Brightness Sun altitude
Exits shadow 09:59:37 13° 254° (WSW) 1,464 5.2 -15.7°
Maximum altitude 10:00:09 14° 244° (WSW) 1,448 5.3 -15.6°
Drops below altitude 10° 10:02:07 10° 211° (SSW) 1,678 5.9 -15.4°
Sets 10:05:08 0° 184° (S) 2,572 7.3 -15.0°
